Weather History for KICT - May, 2013

Change the Weather History Date:

Friday, May 3, 2013

  Actual Average Record
Temperature  
Mean Temperature 48 °F 62 °F  
Max Temperature 60 °F 73 °F 96 °F (1950)
Min Temperature 36 °F 51 °F 30 °F (1907)
Degree Days  
Heating Degree Days 17 5  
Month to date heating degree days 48 15  
Since 1 July heating degree days 4406 4523  
Cooling Degree Days 0 2  
Month to date cooling degree days 0 4  
Year to date cooling degree days 16 30  
Moisture  
Dew Point 30 °F    
Average Humidity 55    
Maximum Humidity 82    
Minimum Humidity 28    
Precipitation  
Precipitation 0.00 in 0.14 in 1.05 in (1958)
Month to date precipitation 0.95 0.39  
Year to date precipitation 9.55 7.68  
Snow  
Snow 0.00 in 0.00 in 0.00 in (2007)
Month to date snowfall T 0.0  
Since 1 July snowfall 30.0 14.9  
Snow Depth 0.00 in    
Sea Level Pressure  
Sea Level Pressure 30.19 in    
Wind  
Wind Speed 14 mph (NNW)    
Max Wind Speed 29 mph    
Max Gust Speed 41 mph    
Visibility 10 miles    
Events      
T = Trace of Precipitation, MM = Missing Value Source: NWS Daily Summary

Daily Weather History Graph

Daily Weather History Graph

Search for Another Location

Airport or City:

Trip Planner

Search our weather history database for the weather conditions in past years. The results will help you decide how hot, cold, wet, or windy it might be!

Date:

Astronomy

May. 03, 2013 Rise Set
Actual Time 6:31 AM CDT 8:22 PM CDT
Civil Twilight 6:03 AM CDT 8:50 PM CDT
Nautical Twilight 5:28 AM CDT 9:24 PM CDT
Astronomical Twilight 4:52 AM CDT 10:01 PM CDT
Moon 2:49 AM CDT (5/3) 2:24 PM CDT (5/3)
Length of Visible Light 14h 47m
Length of Day
13h 50m
Last Quarter, 37% of the Moon is Illuminated
May 3
Last Quarter
May 9
New
May 17
First Quarter
May 24
Full
May 31
Last Quarter

Hourly Weather History & Observations

Time (CDT) Temp. Windchill Dew Point Humidity Pressure Visibility Wind Dir Wind Speed Gust Speed Precip Events Conditions
12:53 AM 37.0 °F 31.0 °F 32.0 °F 82% 30.40 in 10.0 mi NW 8.1 mph - N/A   Partly Cloudy
1:53 AM 37.9 °F 30.9 °F 32.0 °F 79% 30.37 in 10.0 mi NW 10.4 mph - N/A   Partly Cloudy
2:53 AM 37.0 °F 30.4 °F 32.0 °F 82% 30.33 in 10.0 mi NW 9.2 mph - N/A   Clear
3:53 AM 37.9 °F 30.5 °F 30.9 °F 76% 30.32 in 10.0 mi NW 11.5 mph - N/A   Partly Cloudy
4:53 AM 37.0 °F 29.8 °F 30.9 °F 79% 30.31 in 10.0 mi NNW 10.4 mph - N/A   Clear
5:53 AM 36.0 °F 28.0 °F 30.0 °F 79% 30.30 in 10.0 mi NNW 11.5 mph - N/A   Partly Cloudy
6:53 AM 37.0 °F 28.9 °F 30.0 °F 76% 30.30 in 10.0 mi NNW 12.7 mph - N/A   Scattered Clouds
7:53 AM 39.0 °F 31.0 °F 30.0 °F 70% 30.30 in 10.0 mi NNW 13.8 mph - N/A   Partly Cloudy
8:53 AM 43.0 °F 36.4 °F 30.0 °F 60% 30.29 in 10.0 mi NNW 12.7 mph - N/A   Partly Cloudy
9:53 AM 46.9 °F - 30.0 °F 52% 30.26 in 10.0 mi North 13.8 mph - N/A   Clear
10:53 AM 50.0 °F - 30.0 °F 46% 30.25 in 10.0 mi NNW 18.4 mph - N/A   Partly Cloudy
11:53 AM 52.0 °F - 28.9 °F 41% 30.22 in 10.0 mi NNW 21.9 mph 31.1 mph N/A   Partly Cloudy
12:53 PM 55.0 °F - 28.9 °F 37% 30.19 in 10.0 mi NNW 23.0 mph 32.2 mph N/A   Scattered Clouds
1:53 PM 57.0 °F - 30.9 °F 37% 30.14 in 10.0 mi North 19.6 mph 31.1 mph N/A   Scattered Clouds
2:53 PM 57.0 °F - 27.0 °F 32% 30.12 in 10.0 mi NNW 26.5 mph 35.7 mph N/A   Mostly Cloudy
3:53 PM 59.0 °F - 26.6 °F 29% 30.08 in 10.0 mi North 24.2 mph 29.9 mph N/A   Scattered Clouds
4:53 PM 57.9 °F - 27.0 °F 31% 30.06 in 10.0 mi NNW 21.9 mph 28.8 mph N/A   Scattered Clouds
5:53 PM 57.0 °F - 28.0 °F 33% 30.04 in 10.0 mi North 18.4 mph 26.5 mph N/A   Scattered Clouds
6:53 PM 57.0 °F - 28.0 °F 33% 30.03 in 10.0 mi North 15.0 mph 23.0 mph N/A   Scattered Clouds
7:53 PM 54.0 °F - 28.0 °F 37% 30.03 in 10.0 mi North 15.0 mph - N/A   Scattered Clouds
8:53 PM 51.1 °F - 27.0 °F 39% 30.02 in 10.0 mi North 8.1 mph - N/A   Scattered Clouds
9:53 PM 48.0 °F - 28.9 °F 48% 30.03 in 10.0 mi North 5.8 mph - N/A   Scattered Clouds
10:53 PM 46.0 °F 42.5 °F 30.9 °F 56% 30.03 in 10.0 mi NW 6.9 mph - N/A   Mostly Cloudy
11:53 PM 43.0 °F 38.2 °F 30.0 °F 60% 30.01 in 10.0 mi NW 8.1 mph - N/A   Partly Cloudy